Location: Cochran
(32.3868°N, 83.3546°W)
Time: 22:48:02
(UTC+00:00)

Daily predictions for brighter satellites

Satellite Brightness Start Highest point End
(mag) Time Altitude Azimuth Time Altitude Azimuth Time Altitude Azimuth
STARLINK-77 3.5 23:39:55 10° SW 23:43:56 89° ESE 23:47:57 10° NE
STARLINK-25 3.6 23:41:35 10° SW 23:45:36 88° NW 23:49:37 10° NE
STARLINK-75 4.4 23:42:23 10° WSW 23:45:38 39° NW 23:48:53 10° NNE
STARLINK-71 3.7 23:43:26 10° SW 23:47:26 74° NW 23:51:27 10° NE
CZ-4 R/B 4.5 23:44:32 10° SSE 23:48:33 57° ENE 23:52:36 10° N
STARLINK-79 3.6 23:44:54 10° SW 23:48:54 81° NW 23:52:55 10° NE
STARLINK-22 4.1 23:46:57 10° WSW 23:50:17 46° NW 23:53:38 10° NNE
STARLINK-78 3.7 23:46:32 10° SW 23:50:32 77° NW 23:54:34 10° NE
STARLINK-41 4.3 23:48:27 10° WSW 23:51:43 40° NW 23:55:00 10° NNE
STARLINK-57 3.8 23:48:18 10° SW 23:52:17 70° NW 23:56:19 10° NE
USA 229 DEB 3.6 23:46:09 10° SSW 23:52:29 63° ESE 23:59:05 10° NE
USA 229 3.7 23:46:16 10° SSW 23:52:36 62° ESE 23:59:11 10° NE
YAOGAN 6 3.2 23:49:54 10° S 23:53:23 60° W 23:56:52 10° NNW
STARLINK-49 3.8 23:49:52 10° SW 23:53:52 72° NW 23:57:53 10° NE
STARLINK-27 3.8 23:51:32 10° SW 23:55:32 69° NW 23:59:32 10° NE
